This is the latest recevied weather packets stored in our database for station/object SP4MAZ-13. If no packets are shown the sender has not sent any weather packets the latest 10 day(s).
| Time | Temp. | Humidity | Pressure | Rain* | Wind** | Luminosity | Snow |
|---|---|---|---|---|---|---|---|
| 1777886508 | 26.67° C | 29% | 2147.4 hPa | - | - | - | - |
| 1777886205 | 26.67° C | 27% | 2147.4 hPa | - | - | - | - |
| 1777885901 | 26.67° C | 29% | 2147.4 hPa | - | - | - | - |
| 1777885598 | 26.11° C | 29% | 2147.4 hPa | - | - | - | - |
| 1777885294 | 26.11° C | 29% | 2147.4 hPa | - | - | - | - |
| 1777884990 | 26.11° C | 27% | 2147.4 hPa | - | - | - | - |
| 1777884689 | 25.56° C | 30% | 2147.4 hPa | - | - | - | - |
| 1777884385 | 25° C | 30% | 2147.4 hPa | - | - | - | - |
| 1777884081 | 25.56° C | 30% | 2147.4 hPa | - | - | - | - |
| 1777883778 | 25° C | 30% | 2147.4 hPa | - | - | - | - |
| 1777883475 | 25.56° C | 31% | 2147.4 hPa | - | - | - | - |
| 1777883171 | 25.56° C | 30% | 2147.4 hPa | - | - | - | - |
| 1777882867 | 25° C | 32% | 2147.4 hPa | - | - | - | - |
| 1777882564 | 24.44° C | 30% | 2147.4 hPa | - | - | - | - |
| 1777882263 | 25° C | 31% | 2147.4 hPa | - | - | - | - |
| 1777881960 | 24.44° C | 34% | 2147.4 hPa | - | - | - | - |
| 1777881657 | 24.44° C | 33% | 2147.4 hPa | - | - | - | - |
| 1777881353 | 24.44° C | 31% | 2147.4 hPa | - | - | - | - |
| 1777881052 | 24.44° C | 33% | 2147.4 hPa | - | - | - | - |
| 1777880748 | 23.89° C | 32% | 2147.4 hPa | - | - | - | - |
| 1777880445 | 23.89° C | 34% | 2147.4 hPa | - | - | - | - |
| 1777880142 | 23.89° C | 33% | 2147.4 hPa | - | - | - | - |
| 1777879839 | 23.33° C | 35% | 2147.4 hPa | - | - | - | - |
| 1777879535 | 22.78° C | 36% | 2147.4 hPa | - | - | - | - |
| 1777879231 | 22.78° C | 33% | 2147.4 hPa | - | - | - | - |
* Rain since midnight (hover to see other rain measurements)
** Current wind speed in m/s (hover to see current wind gust speed)